Tracking 21612 objects as of 20-Oct-2020
HD Live streaming from Space Station
objects crossing your sky now

COSMOS 1510

Track COSMOS 1510 now!
10-day predictions
COSMOS 1510 is classified as:


NORAD ID: 14521
Int'l Code: 1983-115A
Perigee: 1,487.5 km
Apogee: 1,530.1 km
Inclination: 73.6 °
Period: 116.0 minutes
Semi major axis: 7879 km
RCS: 10.4266 m2 (large)
Launch date: November 24, 1983
Source: Commonwealth of Independent States (former USSR) (CIS)
Launch site: PLESETSK MISSILE AND SPACE COMPLEX (PKMTR)
aabbcc
Your satellite tracking list
Your tracking list is empty




NASA's NSSDC Master Catalog

Two Line Element Set (TLE):
1 14521U 83115A   20294.51823919 +.00000010 +00000-0 +19728-3 0  9997
2 14521 073.6186 198.7982 0027078 049.4559 127.0920 12.41164835672731
Source of the keplerian elements: AFSPC